Location: Antioch
(38.0049°N, 121.8058°W)
Time: 12:16:55
(UTC+00:00)

Cosmos 2297 Rocket - Pass Details

Date: 11 February 2026
Orbit: 838 x 842 km, 71.0° (Epoch: 17 March)

Event Time Altitude Azimuth Distance (km) Brightness Sun altitude
Exits shadow 12:09:21 42° 61° (ENE) 1,179 3.2 -34.4°
Maximum altitude 12:09:24 42° 62° (ENE) 1,178 3.2 -34.4°
Drops below altitude 10° 12:14:43 10° 133° (SE) 2,450 5.0 -33.4°
Sets 12:17:16 0° 140° (SE) 3,380 5.7 -32.9°
